When you browse on this site, cookies collect data to enhance your experience and personalize the content and advertising you see.
Visit our Privacy Policy to learn more. By continuing to use the site, you agree to this use of cookies and data.
  • In United Kingdom
  • List of Countries
  • For 7 days
  • Water Temperature
  • Weather Map
  • Weather Widgets
  • user-avatar
    Login

    Hourly Weather Vatican

    Today, 31 May, Sunday

    Time Temperature Precipitation Wind Pressure Humidity
    00:00 +18°C° 0 mm 1 mps 759 mmHg 73%
    01:00 +18°C° 0 mm 1 mps 760 mmHg 74%
    02:00 +16°C° 0 mm 1 mps 760 mmHg 75%
    03:00 +16°C° 0 mm 1 mps 759 mmHg 76%
    04:00 +16°C° 0 mm 1 mps 759 mmHg 77%
    05:00 +18°C° 0 mm 1 mps 759 mmHg 74%
    06:00 +18°C° 0 mm 1 mps 759 mmHg 71%
    07:00 +19°C° 0 mm 1 mps 759 mmHg 68%
    08:00 +20°C° 0 mm 1 mps 760 mmHg 63%
    09:00 +22°C° 0 mm 1 mps 760 mmHg 58%
    10:00 +23°C° 0 mm 1 mps 760 mmHg 52%
    11:00 +23°C° 0 mm 2 mps 760 mmHg 53%
    12:00 +22°C° 0 mm 3 mps 760 mmHg 54%
    13:00 +23°C° 0 mm 4 mps 759 mmHg 55%
    14:00 +22°C° 0.1 mm 4 mps 759 mmHg 56%
    15:00 +22°C° 0.1 mm 4 mps 759 mmHg 57%
    16:00 +22°C° 0.1 mm 5 mps 759 mmHg 58%
    17:00 +22°C° 0 mm 5 mps 759 mmHg 60%
    18:00 +21°C° 0 mm 5 mps 759 mmHg 63%
    19:00 +21°C° 0 mm 4 mps 759 mmHg 65%
    20:00 +20°C° 0 mm 4 mps 759 mmHg 65%
    21:00 +20°C° 0 mm 4 mps 760 mmHg 65%
    22:00 +19°C° 0 mm 3 mps 760 mmHg 66%
    23:00 +19°C° 0 mm 3 mps 760 mmHg 67%

    Tomorrow, 1 June, Monday

    Time Temperature Precipitation Wind Pressure Humidity
    00:00 +18°C° 0 mm 4 mps 760 mmHg 69%
    01:00 +18°C° 0 mm 4 mps 760 mmHg 71%
    02:00 +17°C° 0 mm 4 mps 760 mmHg 71%
    03:00 +17°C° 0 mm 4 mps 760 mmHg 72%
    04:00 +17°C° 0 mm 4 mps 760 mmHg 72%
    05:00 +17°C° 0 mm 4 mps 760 mmHg 69%
    06:00 +18°C° 0 mm 3 mps 760 mmHg 66%
    07:00 +18°C° 0 mm 3 mps 760 mmHg 63%
    08:00 +20°C° 0 mm 3 mps 760 mmHg 58%
    09:00 +23°C° 0 mm 2 mps 760 mmHg 53%
    10:00 +24°C° 0 mm 2 mps 761 mmHg 48%
    11:00 +24°C° 0 mm 2 mps 760 mmHg 48%
    12:00 +25°C° 0 mm 2 mps 760 mmHg 48%
    13:00 +25°C° 0 mm 2 mps 760 mmHg 48%
    14:00 +25°C° 0 mm 2 mps 760 mmHg 50%
    15:00 +25°C° 0 mm 3 mps 760 mmHg 52%
    16:00 +24°C° 0 mm 3 mps 760 mmHg 54%
    17:00 +24°C° 0 mm 3 mps 760 mmHg 57%
    18:00 +22°C° 0 mm 3 mps 759 mmHg 60%
    19:00 +21°C° 0 mm 2 mps 759 mmHg 63%
    20:00 +21°C° 0 mm 2 mps 760 mmHg 64%
    21:00 +20°C° 0 mm 2 mps 760 mmHg 65%
    22:00 +20°C° 0 mm 2 mps 760 mmHg 67%
    23:00 +19°C° 0 mm 2 mps 760 mmHg 66%

    Day after tomorrow, 2 June, Tuesday

    Time Temperature Precipitation Wind Pressure Humidity
    00:00 +19°C° 0 mm 3 mps 760 mmHg 66%
    01:00 +18°C° 0 mm 3 mps 760 mmHg 65%
    02:00 +18°C° 0 mm 3 mps 760 mmHg 67%
    03:00 +18°C° 0 mm 3 mps 760 mmHg 68%
    04:00 +18°C° 0 mm 4 mps 760 mmHg 69%
    05:00 +18°C° 0 mm 3 mps 760 mmHg 65%
    06:00 +19°C° 0 mm 3 mps 760 mmHg 62%
    07:00 +20°C° 0 mm 3 mps 760 mmHg 59%
    08:00 +21°C° 0 mm 3 mps 760 mmHg 55%
    09:00 +24°C° 0 mm 3 mps 760 mmHg 51%
    10:00 +25°C° 0 mm 3 mps 760 mmHg 46%
    11:00 +25°C° 0 mm 3 mps 759 mmHg 48%
    12:00 +25°C° 0 mm 3 mps 759 mmHg 49%
    13:00 +26°C° 0 mm 4 mps 759 mmHg 50%
    14:00 +25°C° 0 mm 4 mps 759 mmHg 52%
    15:00 +25°C° 0 mm 3 mps 758 mmHg 53%
    16:00 +25°C° 0 mm 3 mps 758 mmHg 54%
    17:00 +24°C° 0 mm 3 mps 758 mmHg 59%
    18:00 +22°C° 0 mm 3 mps 758 mmHg 63%
    19:00 +21°C° 0 mm 3 mps 758 mmHg 68%
    20:00 +21°C° 0 mm 3 mps 758 mmHg 68%
    21:00 +20°C° 0 mm 3 mps 758 mmHg 68%
    22:00 +20°C° 0 mm 3 mps 758 mmHg 69%
    23:00 +19°C° 0 mm 3 mps 758 mmHg 69%

    3 June, Wednesday

    Time Temperature Precipitation Wind Pressure Humidity
    00:00 +19°C° 0 mm 3 mps 757 mmHg 69%
    01:00 +19°C° 0 mm 3 mps 757 mmHg 70%
    02:00 +18°C° 0 mm 3 mps 757 mmHg 71%
    03:00 +18°C° 0 mm 3 mps 757 mmHg 72%
    04:00 +18°C° 0 mm 3 mps 757 mmHg 73%
    05:00 +19°C° 0 mm 3 mps 757 mmHg 69%
    06:00 +19°C° 0 mm 2 mps 757 mmHg 66%
    07:00 +20°C° 0 mm 2 mps 756 mmHg 63%
    08:00 +21°C° 0 mm 2 mps 757 mmHg 58%
    09:00 +24°C° 0 mm 2 mps 757 mmHg 54%
    10:00 +25°C° 0 mm 2 mps 757 mmHg 50%
    11:00 +25°C° 0 mm 3 mps 757 mmHg 50%
    12:00 +26°C° 0 mm 3 mps 757 mmHg 50%
    13:00 +26°C° 0 mm 4 mps 756 mmHg 50%
    14:00 +26°C° 0 mm 4 mps 756 mmHg 51%
    15:00 +25°C° 0 mm 3 mps 756 mmHg 51%
    16:00 +25°C° 0 mm 3 mps 756 mmHg 52%
    17:00 +24°C° 0 mm 3 mps 756 mmHg 55%
    18:00 +23°C° 0 mm 2 mps 756 mmHg 58%
    19:00 +23°C° 0 mm 1 mps 756 mmHg 61%
    20:00 +22°C° 0 mm 1 mps 757 mmHg 63%
    21:00 +22°C° 0 mm 1 mps 757 mmHg 66%
    22:00 +21°C° 0 mm 1 mps 757 mmHg 68%
    23:00 +21°C° 0 mm 1 mps 757 mmHg 69%

    4 June, Thursday

    Time Temperature Precipitation Wind Pressure Humidity
    00:00 +19°C° 0 mm 2 mps 757 mmHg 69%
    01:00 +19°C° 0 mm 2 mps 757 mmHg 69%
    02:00 +19°C° 0 mm 2 mps 757 mmHg 69%
    03:00 +19°C° 0 mm 2 mps 757 mmHg 69%
    04:00 +18°C° 0 mm 3 mps 757 mmHg 69%
    05:00 +19°C° 0 mm 3 mps 757 mmHg 67%
    06:00 +20°C° 0 mm 4 mps 757 mmHg 64%
    07:00 +21°C° 0 mm 4 mps 757 mmHg 62%
    08:00 +22°C° 0 mm 5 mps 757 mmHg 59%
    09:00 +23°C° 0 mm 5 mps 757 mmHg 56%
    10:00 +24°C° 0 mm 6 mps 757 mmHg 53%
    11:00 +24°C° 0 mm 6 mps 757 mmHg 52%
    12:00 +26°C° 0 mm 6 mps 757 mmHg 51%
    13:00 +26°C° 0 mm 6 mps 757 mmHg 50%
    14:00 +26°C° 0 mm 7 mps 757 mmHg 52%
    15:00 +26°C° 0 mm 7 mps 757 mmHg 53%
    16:00 +24°C° 0 mm 7 mps 756 mmHg 54%
    17:00 +24°C° 0 mm 7 mps 756 mmHg 59%
    18:00 +23°C° 0 mm 7 mps 756 mmHg 63%
    19:00 +22°C° 0 mm 7 mps 756 mmHg 68%
    20:00 +22°C° 0 mm 7 mps 756 mmHg 68%
    21:00 +21°C° 0 mm 7 mps 757 mmHg 68%
    22:00 +21°C° 0 mm 7 mps 757 mmHg 69%
    23:00 +21°C° 0 mm 7 mps 757 mmHg 67%

    5 June, Friday

    Time Temperature Precipitation Wind Pressure Humidity
    00:00 +20°C° 0 mm 7 mps 757 mmHg 65%
    01:00 +20°C° 0 mm 7 mps 757 mmHg 64%
    02:00 +20°C° 0 mm 7 mps 756 mmHg 62%
    03:00 +20°C° 0 mm 7 mps 756 mmHg 61%
    04:00 +20°C° 0 mm 7 mps 756 mmHg 59%
    05:00 +21°C° 0 mm 8 mps 756 mmHg 57%
    06:00 +22°C° 0 mm 8 mps 756 mmHg 55%
    07:00 +23°C° 0 mm 8 mps 757 mmHg 54%
    08:00 +24°C° 0 mm 8 mps 756 mmHg 51%
    09:00 +26°C° 0 mm 8 mps 756 mmHg 49%
    10:00 +27°C° 0 mm 8 mps 756 mmHg 47%
    11:00 +27°C° 0 mm 8 mps 756 mmHg 47%
    12:00 +27°C° 0 mm 8 mps 756 mmHg 48%
    13:00 +28°C° 0 mm 9 mps 756 mmHg 48%
    14:00 +27°C° 0 mm 8 mps 756 mmHg 50%
    15:00 +27°C° 0 mm 8 mps 756 mmHg 52%
    16:00 +27°C° 0 mm 7 mps 755 mmHg 55%
    17:00 +26°C° 0 mm 7 mps 755 mmHg 57%
    18:00 +26°C° 0 mm 6 mps 756 mmHg 59%
    19:00 +24°C° 0 mm 6 mps 756 mmHg 62%
    20:00 +24°C° 0 mm 6 mps 756 mmHg 63%
    21:00 +23°C° 0 mm 6 mps 756 mmHg 64%
    22:00 +22°C° 0 mm 5 mps 757 mmHg 65%
    23:00 +22°C° 0 mm 5 mps 757 mmHg 65%
    Show more